Regional Weather Roundup
Issued by NWS

Home | Current Version | Previous Version | Text Only | Print | Product List | Glossary On
Versions: 1 2 3 4 5 6 7 8 9 10 11 12 13 14 15 16 17 18 19 20 21 22 23 24 25 26 27
000
ASUS45 KBOU 280907
RWRCO

WEATHER ROUNDUP FOR COLORADO
NATIONAL WEATHER SERVICE DENVER/BOULDER CO
200 AM MST TUE FEB 28 2017

NOTE: "FAIR" INDICATES FEW OR NO CLOUDS BELOW 12000 FEET WITH NO
SIGNIFICANT WEATHER AND/OR OBSTRUCTIONS TO VISIBILITY.

COZ001>005-013-030-031-281000-
...NORTHWEST COLORADO...

CITY           SKY/WX    TMP DP  RH WIND       PRES   REMARKS
CRAIG          FLURRIES  20  15  81 CALM      29.77F
HAYDEN         FAIR      18  12  79 CALM      29.75F
MEEKER         CLOUDY    23  20  88 CALM      29.73F
MOUNT WERNER   NOT AVBL
STEAMBOAT SPGS CLOUDY    18  17  94 W3        29.74S
WALDEN         NOT AVBL
$$

COZ006>008-011-281000-
...WEST CENTRAL VALLEYS...

CITY           SKY/WX    TMP DP  RH WIND       PRES   REMARKS
GRAND JUNCTION CLOUDY    33  32  96 W9        29.70S WCI  25
MONTROSE       CLOUDY    34  31  88 SE12      29.72F WCI  25
EAGLE          FLURRIES  29  24  82 W7        29.69F WCI  22
RIFLE          FLURRIES  30  25  81 W9        29.72F WCI  22
DELTA          CLOUDY    39  33  80 NE6       29.69S
NUCLA          CLOUDY    36  30  80 SE10      29.73F
$$

COZ017>023-064>068-281000-
...SOUTHWEST COLORADO...

CITY           SKY/WX    TMP DP  RH WIND       PRES   REMARKS
DURANGO        LGT SNOW  31  30  96 SW5       29.74F FOG     WCI  26
CORTEZ         LGT SNOW  33  33 100 SW9       29.75S FOG     WCI  25
PAGOSA SPRINGS LGT SNOW  32  32 100 S10       29.74F VSB 3/4 WCI  24
TELLURIDE      LGT SNOW  27  27  98 CALM      29.72S
WOLF CREEK PAS CLOUDY    18  18 100 S31G41    29.71F WCI  -2
$$

COZ009-010-012-014-032>034-037-058>063-281000-
...CENTRAL COLORADO...

CITY           SKY/WX    TMP DP  RH WIND       PRES   REMARKS
ASPEN          LGT SNOW  27  26  96 CALM      29.65F FOG
BUENA VISTA    LGT SNOW  29  25  83 CALM      29.66F
COPPER MTN     LGT SNOW  19  12  73 MISG      29.64F
BERTHOUD PASS  LGT SNOW  10   0  61 W13G20    29.62F WCI  -5
COTTONWOOD PAS LGT SNOW  27  25  93 N3        29.66F
GUNNISON       LGT SNOW  27  26  96 N6        29.70S VSB 3/4 WCI  20
KREMMLING      LGT SNOW  25  19  80 CALM      29.72F
LEADVILLE      LGT SNOW  19  15  84 E3        29.64F FOG
MONARCH PASS   CLOUDY    18  14  86 SW25      29.74F WCI  -1
SALIDA         CLOUDY    35  23  62 S7        29.74F WCI  29
SUNLIGHT       NOT AVBL
WILKERSON PASS LGT SNOW  19  16  86 S6        29.70S WCI  11
$$

COZ069>075-281000-
...SAN LUIS VALLEY/SANGRE DE CRISTO MOUNTAINS...

CITY           SKY/WX    TMP DP  RH WIND       PRES   REMARKS
ALAMOSA        LGT SNOW  32  31  96 S18       29.71F FOG     WCI  20
LA VETA PASS   LGT SNOW  27  23  86 S29G52    29.70S WCI  11
SAGUACHE       CLOUDY    27  21  80 CALM      29.72F
$$

COZ035-036-038>040-281000-
...NORTHERN COLORADO FRONT RANGE...

CITY           SKY/WX    TMP DP  RH WIND       PRES   REMARKS
DENVER INTL AP MOCLDY    21  17  84 SE10      29.70S WCI  10
DMNS CITY PARK   N/A     29  19  64 E9        29.71S WCI  21
AURORA         MOCLDY    24  19  81 SE8       29.70F WCI  15
FRONT RANGE AP FAIR      27  21  80 SE7       29.70F WCI  19
ERIE MUNI ARPT CLOUDY    30  22  70 S6        29.71S WCI  24
BOULDER MUN AP MOCLDY    32  23  69 S6        29.70F WCI  26
CENTENNIAL     FAIR      26  18  71 SE8       29.70F WCI  18
BROOMFIELD     FAIR      30  23  74 S7        29.70S WCI  23
FORT COLLINS   FAIR      32  24  72 S5        29.70S WCI  27
LONGMONT       NOT AVBL
$$

COZ041-046-047-076>085-087-088-281000-
...PIKES PEAK/PALMER DIVIDE AND SOUTHERN FOOTHILLS...

CITY           SKY/WX    TMP DP  RH WIND       PRES   REMARKS
COLO. SPRINGS  FAIR      28  16  60 NE18      29.65F WCI  15
A. F. ACADEMY  FAIR      39  16  38 N20       29.63R
SCHRIEVER AFB  FAIR      24  17  74 N17       29.67S WCI  11
ELLICOTT       FAIR     N/A N/A N/A NE20      29.65F
FALCON         FAIR      22  16  78 N9        29.68F WCI  12
FORT CARSON    FAIR      37  16  41 VRB3      29.63S
LIMON          FAIR     N/A N/A N/A N10       29.70S
MONUMENT HILL  FAIR      21  18  86 E5        29.70S WCI  15
TRINIDAD       FAIR      45  23  42 SW13      29.67F
$$

COZ042>045-048>051-090-091-281000-
...NORTHEAST COLORADO...

CITY           SKY/WX    TMP DP  RH WIND       PRES   REMARKS
GREELEY ARPT   FAIR      33  14  45 W9        29.71R WCI  25
AKRON          FAIR      23  19  85 W7        29.72S WCI  15
BURLINGTON     FAIR      26  19  74 NW12      29.72S WCI  16
WRAY           NOT AVBL
STERLING       FAIR      23  21  93 SW3       29.72S
HOLYOKE        FAIR      34  28  80 NW9       29.71F WCI  26
FORT MORGAN    FAIR      25  22  90 CALM      29.73R
$$

COZ086-089-092>099-281000-
...SOUTHEAST COLORADO...

CITY           SKY/WX    TMP DP  RH WIND       PRES   REMARKS
PUEBLO         FAIR      36  19  50 N10       29.62F
LA JUNTA       FAIR      41  23  48 SW9       29.65F
LAMAR          FAIR      32  13  45 SW5       29.64F WCI  27
SPRINGFIELD      N/A     38  21  50 SW12      29.67F
$$




USA.gov is the U.S. government's official web portal to all federal, state and local government web resources and services.